Regional Weather Roundup
Issued by NWS

Home | Current Version | Previous Version | Text Only | Print | Product List | Glossary Off
Versions: 1 2 3 4 5 6 7 8 9 10 11 12 13 14 15 16 17 18 19 20 21 22 23 24 25 26 27 28 29 30 31 32 33 34 35 36 37 38 39 40 41 42 43 44 45 46 47 48 49 50

000
ASUS45 KTFX 271504
RWRMT
MONTANA HOURLY WEATHER ROUNDUP
NATIONAL WEATHER SERVICE GREAT FALLS MT
804 AM MST FRI FEB 27 2015

NOTE: "FAIR" INDICATES FEW OR NO CLOUDS BELOW 12000 FEET WITH NO
SIGNIFICANT WEATHER AND/OR OBSTRUCTIONS TO VISIBILITY.

* THESE STATIONS ARE NOT UNDER NWS QUALITY CONTROL. THEY DO NOT
   REPORT WEATHER SUCH AS PRECIPITATION OR FOG.

MTZ001>007-043-271600-
WEST OF THE DIVIDE
CITY           SKY/WX    TMP DP  RH WIND       PRES   REMARKS
KALISPELL      CLOUDY    27  18  69 NE15G22   29.90R WCI  15
MISSOULA       CLOUDY    25  12  58 E17       29.89S WCI  12
BUTTE          CLOUDY     7   1  76 SE5       29.82F WCI  -2
MULLAN PASS    CLOUDY    18  16  92 SE10G18   29.72R WCI   6
* ANACONDA     PTSUNNY    9   3  76 S3         N/A
* ESSEX        N/A       13   9  84 SW1        N/A
* LINCOLN      N/A       -1  -6  79 N/A        N/A
* LOOKOUT PASS N/A       22  18  85 E1         N/A
* POLSON       N/A       23  20  88 SW1        N/A
* RONAN APT    PTCLDY    27  21  78 N/A        N/A
* SEELEY LAKE  N/A        9   5  84 N/A        N/A
* THOMP F APT  PTCLDY    18  14  84 N/A        N/A
$$

MTZ008-052>055-271600-
SOUTHWEST MONTANA
CITY           SKY/WX    TMP DP  RH WIND       PRES   REMARKS
BOZEMAN        SUNNY      7   1  76 CALM      29.92R
DILLON         CLOUDY    12   9  88 CALM      29.83S
* W YELLOWSTON PTCLDY     2  -4  76 N/A        N/A
* THREE FORKS  SUNNY      7   1  76 N/A        N/A
* BOULDER HILL N/A        6   0  76 S9         N/A   WCI  -8
* MONIDA PASS  N/A       11   9  92 NW2        N/A
* RAYNOLDS PAS N/A        6  -6  57 S8         N/A   WCI  -7
* WHITEHALL    N/A        4  -1  79 NE1        N/A
* WISE RIVER   N/A        9   4  80 N/A        N/A
$$

MTZ009>010-012-014-046-048-049-054-271600-
EAST SLOPES AND CENTRAL MONTANA
CITY           SKY/WX    TMP DP  RH WIND       PRES   REMARKS
CUT BANK       PTSUNNY   10   7  88 N21       29.96R WCI  -9
GREAT FALLS    CLOUDY     7   3  83 NW5       29.94R WCI  -2
HELENA         PTCLDY     9   3  76 NE3       29.95S
* DEARBORN     N/A       15   8  74 S5         N/A   WCI   7
* EAST GLACIER N/A       13   6  73 NW5G17     N/A   WCI   5
* MONARCH      N/A        5  -1  76 VRB1       N/A
* PENDROY      N/A       10   8  92 N17G24     N/A   WCI  -8
* ROGERS PASS  N/A        9   4  80 SE6        N/A   WCI  -1
* SWEET GRASS  N/A        6   3  87 NW10       N/A   WCI  -9
$$

MTZ011-013-016-021-035-040-045-047-050-051-271600-
NORTH CENTRAL MONTANA
CITY           SKY/WX    TMP DP  RH WIND       PRES   REMARKS
HAVRE          PTCLDY     1  -2  87 CALM      30.05R
LEWISTOWN      PTCLDY     0  -6  75 SE5       29.89R WCI -11
* N BAR RANCH  SUNNY      5  -2  72 CALM      29.87S
* CHESTER      N/A        5  -1  76 N/A        N/A
* DENTON       N/A       -3  -9  75 N/A        N/A
* GEYSER       N/A        0  -4  83 SW8        N/A   WCI -14
* JUDITH GAP   N/A       -4  -6  91 SE7        N/A   WCI -18
* LOMA         N/A        4   0  83 E2         N/A
$$

MTZ017>020-022>027-061-062-271600-
NORTHEAST MONTANA
CITY           SKY/WX    TMP DP  RH WIND       PRES   REMARKS
GLASGOW        SUNNY      1  -6  72 SE15      30.11S WCI -18
GLENDIVE       SUNNY      3  -4  72 SE6       30.17F WCI  -8
JORDAN         SUNNY      1  -2  87 E7        30.07F WCI -12
SIDNEY         SUNNY      1 N/A N/A CALM      30.26F
WOLF POINT     SUNNY      3  -4  72 E7        30.19F WCI  -9
* BEAVER HILL  N/A        5  -4  66 SE12       N/A   WCI -11
* CIRCLE       N/A        1  -4  79 S1         N/A
* LINDSAY DVD  N/A       -3  -8  79 E5         N/A   WCI -14
* NAVAJO       N/A       -1  -6  79 S10        N/A   WCI -17
* SACO         N/A        0  -6  75 E6         N/A   WCI -12
$$

MTZ028>042-056>058-271600-
SOUTHCENTRAL AND SOUTHEAST MONTANA
CITY           SKY/WX    TMP DP  RH WIND       PRES   REMARKS
BAKER          SUNNY      1  -6  72 SE15      30.14F WCI -18
BILLINGS       PTCLDY     1  -2  87 SW8       29.97F WCI -13
LIVINGSTON     CLOUDY     5   0  80 N12       29.88F WCI -11
MILES CITY     PTCLDY     3  -2  79 SE10      30.12S WCI -12
* LAUREL APT   SUNNY      0  -9  65 N/A        N/A
* ROUNDUP APT  PTCLDY     0  -9  65 N/A        N/A
* ALZADA       N/A       -8 -13  78 E4         N/A
* HYSHAM       N/A        3  -6  66 W6         N/A   WCI  -8
* LAME DEER    N/A        1  -3  83 S11        N/A   WCI -15
* REED POINT   N/A       -3  -6  87 SE4        N/A
* ROSCOE HILL  N/A        0  -5  79 SW2        N/A
$$

REGIONAL REPORTS...DAKOTAS
CITY           SKY/WX    TMP DP  RH WIND       PRES   REMARKS
WILLISTON      PTCLDY    -4  -9  79 CALM      30.26F
DICKINSON      SUNNY      1  -6  72 S13       30.20F WCI -17
BEACH          SUNNY      1  -4  79 S16G21    30.17F WCI -19
CROSBY         SUNNY     -6 -11  78 S12       30.24F WCI -25
WATFORD CITY   SUNNY     -4  -9  79 E7        30.24F WCI -18
BISMARCK       PTCLDY    -8 -11  86 SE3       30.40F
GRAND FORKS    PTCLDY    -6 -13  71 SW5       30.44S WCI -18
FARGO          SUNNY     -4 -11  71 SW9       30.49S WCI -20
BUFFALO SD     PTCLDY     0  -6  75 SE8       30.09F WCI -14
RAPID CITY     PTCLDY     1  -4  79 SE13      30.21F WCI -17
$$

REGIONAL REPORTS...WYOMING/IDAHO/WASHINGTON
CITY           SKY/WX    TMP DP  RH WIND       PRES   REMARKS
GILLETTE       SUNNY      3   0  87 S20G30    29.99F WCI -18
SHERIDAN       PTCLDY    -8 -11  86 CALM      29.98S
CODY           PTCLDY     1   0  95 S6        29.89S WCI -11
YELLOWSTONE LA PTSUNNY   -2  -6  83 CALM      29.78S
SALMON         CLOUDY    28  18  66 CALM      29.82S
MULLAN PASS    CLOUDY    18  16  92 SE10G18   29.72S WCI   6
SAND POINT     PTCLDY    32  27  82 NE12      29.85S WCI  23
SPOKANE        SUNNY     28  27  96 NE5       29.81S WCI  22

$$



USA.gov is the U.S. government's official web portal to all federal, state and local government web resources and services.